Home > Weather > Houston > Past weeks

Flag for USA Weather for the Past 2 Weeks in Houston, Texas, USA

Now
75 °F

Partly sunny.


Feels Like: 77 °F
Forecast: 65 / 77 °F
Wind: 13 mph from North

Location: Houston Hobby Airport

Current Time: May 2, 2016 at 6:14:48 PM

Latest Report: May 2, 2016 at 4:53 PM


Visibility: 10 mi

Pressure: 29.97 "Hg

Humidity: 62%

Dew Point: 61 °F

Location of HoustonLocation

Historic Weather in Houston — Graph

°F

Houston Temperature Yesterday

Maximum temperature yesterday: 82 °F (at 12:53 PM)
Minimum temperature yesterday: 75 °F (at 6:53 AM)
Average temperature yesterday: 78 °F

High & Low Weather Summary for the Past Weeks

 TemperatureHumidityPressure
High86 °F (Apr 30, 2:53 PM)100% (Apr 18, 10:00 AM)30.14 "Hg (Apr 18, 10:00 AM)
Low62 °F (Apr 23, 5:53 AM)32% (Apr 23, 3:53 PM)29.62 "Hg (Apr 27, 4:53 AM)
Average74 °F82%29.89 "Hg
* Reported Apr 17 3:53 PM — May 2 3:53 PM, Houston, Weather by CustomWeather, © 2016

Note: Actual official high and low records may vary slightly from our data, if they occured in-between our weather recording intervals... More about our weather records

Advertising

Houston Weather History for the Previous 24 Hours

Scroll right to see more
 ConditionsComfort  
Time TempWeatherWind HumidityBarometerVisibility
3:53 PM
Mon, May 2
74 °FPartly sunny.14 mph67%29.98 "Hg10 mi
2:53 PM71 °FMore clouds than sun.12 mph73%30.00 "Hg10 mi
1:53 PM68 °FOvercast.18 mph76%30.01 "Hg10 mi
12:53 PM65 °FMore clouds than sun.21 mph78%30.03 "Hg10 mi
11:53 AM64 °FOvercast.20 mph81%30.03 "Hg10 mi
10:53 AM64 °FOvercast.18 mph87%30.02 "Hg10 mi
9:53 AM65 °FMostly cloudy.20 mph94%29.99 "Hg10 mi
8:53 AM68 °FLight rain. Mostly cloudy.18 mph96%29.96 "Hg10 mi
7:53 AM73 °FLight rain. Low clouds.12 mph94%29.92 "Hg10 mi
6:53 AM73 °FMostly cloudy.7 mph94%29.90 "Hg10 mi
5:53 AM73 °FMostly cloudy.5 mph94%29.90 "Hg9 mi
4:53 AM73 °FMostly cloudy.6 mph94%29.90 "Hg7 mi
3:53 AM73 °FThundershowers. Overcast.6 mph97%29.90 "Hg7 mi
2:53 AM74 °FLight rain. Fog.6 mph91%29.91 "Hg6 mi
1:53 AM75 °FMostly cloudy.5 mph88%29.90 "Hg10 mi
12:53 AM76 °FOvercast.7 mph85%29.93 "Hg10 mi
11:53 PM
Sun, May 1
76 °FOvercast.7 mph85%29.93 "Hg10 mi
10:53 PM76 °FMostly cloudy.6 mph85%29.93 "Hg10 mi
9:53 PM75 °FMostly cloudy.6 mph88%29.90 "Hg10 mi
8:53 PM76 °FMore clouds than sun.10 mph85%29.88 "Hg10 mi
7:53 PM75 °FMostly cloudy.13 mph90%29.86 "Hg10 mi
6:53 PM76 °FLow clouds.13 mph88%29.83 "Hg10 mi
Weather by CustomWeather, © 2016

See weather overviewHow to use our weather pages